DW4466 Weather Reports


time (UTC)temp
C
wind
direction
speed
KPH
gust
KPH
rain 1hr
cm
rain 24hr
cm
rain mn
cm
humidity
%
barometer
mb
20260509213005 21 338 3.2 6.4 0.00 0.00 0.00 55 1006.2
20260509212537 21 70 3.2 4.8 0.00 0.00 0.00 54 1006.2
20260509212009 21 344 1.6 4.8 0.00 0.00 0.00 56 1006.2
20260509211545 21 311 1.6 8.0 0.00 0.00 0.00 55 1006.2
20260509211059 21 9 3.2 12.9 0.00 0.00 0.00 53 1006.2
20260509211003 21 350 4.8 12.9 0.00 0.00 0.00 53 1006.2
20260509210519 22 50 1.6 6.4 0.00 0.00 0.00 53 1006.2
20260509210056 22 65 1.6 6.4 0.00 0.00 0.00 54 1006.1
20260509205534 22 273 3.2 14.5 0.00 0.00 0.00 53 1006.1
20260509205101 22 22 4.8 14.5 0.00 0.00 0.00 54 1006.1
20260509204526 22 331 4.8 11.3 0.00 0.00 0.00 55 1006.1
20260509204049 22 160 1.6 11.3 0.00 0.00 0.00 58 1006.0
20260509203519 21 103 4.8 11.3 0.00 0.00 0.00 56 1006.1
20260509203053 22 63 1.6 6.4 0.00 0.00 0.00 59 1006.0
20260509202531 22 198 3.2 8.0 0.00 0.00 0.00 55 1006.1
20260509202047 21 358 1.6 4.8 0.00 0.00 0.00 57 1006.1
20260509201520 22 331 1.6 6.4 0.00 0.00 0.00 56 1006.1
20260509201051 21 32 0.0 17.7 0.00 0.00 0.00 54 1006.2
20260509200529 21 332 8.0 17.7 0.00 0.00 0.00 53 1006.3
20260509200046 22 286 3.2 11.3 0.00 0.00 0.00 59 1006.4
20260509195516 21 18 3.2 14.5 0.00 0.00 0.00 54 1006.2
20260509195053 21 300 8.0 16.1 0.00 0.00 0.00 55 1006.3
20260509194519 21 250 11.3 17.7 0.00 0.00 0.00 53 1006.4
20260509194056 21 312 4.8 19.3 0.00 0.00 0.00 55 1006.4
20260509193511 21 263 8.0 20.9 0.00 0.00 0.00 55 1006.4
20260509193044 21 326 8.0 20.9 0.00 0.00 0.00 55 1006.5
20260509192512 21 326 4.8 24.1 0.00 0.00 0.00 54 1006.4
20260509192045 21 231 9.7 19.3 0.00 0.00 0.00 53 1006.4
20260509191517 21 188 9.7 19.3 0.00 0.00 0.00 55 1006.5
20260509191033 21 283 6.4 19.3 0.00 0.00 0.00 55 1006.6
20260509190504 21 261 9.7 19.3 0.00 0.00 0.00 58 1006.7
20260509190036 21 287 6.4 16.1 0.00 0.00 0.00 57 1006.8
20260509185505 21 302 4.8 17.7 0.00 0.00 0.00 58 1006.9
20260509185037 20 194 8.0 17.7 0.00 0.00 0.00 59 1007.0
20260509184506 20 241 1.6 17.7 0.00 0.00 0.00 59 1007.0
20260509184039 20 356 4.8 17.7 0.00 0.00 0.00 58 1007.2
20260509183505 20 197 1.6 9.7 0.00 0.00 0.00 58 1007.2
20260509183038 20 152 4.8 14.5 0.00 0.00 0.00 58 1007.2
20260509182509 20 77 6.4 14.5 0.00 0.00 0.00 58 1006.9
20260509182041 19 174 4.8 12.9 0.00 0.00 0.00 59 1007.1
20260509181515 19 223 3.2 12.9 0.00 0.00 0.00 59 1007.3
20260509181047 19 133 1.6 8.0 0.00 0.00 0.00 59 1007.5
20260509180515 19 199 3.2 14.5 0.00 0.00 0.00 58 1007.6
20260509180049 19 169 8.0 14.5 0.00 0.00 0.00 56 1007.7
20260509175527 19 133 4.8 9.7 0.00 0.00 0.00 56 1008.0
20260509175047 19 115 3.2 11.3 0.00 0.00 0.00 57 1008.0
20260509174507 18 271 3.2 9.7 0.00 0.00 0.00 57 1008.0
20260509174039 18 224 3.2 8.0 0.00 0.00 0.00 59 1008.0
20260509173508 18 171 3.2 6.4 0.00 0.00 0.00 56 1008.2
20260509173044 18 150 1.6 6.4 0.00 0.00 0.00 59 1008.4
20260509172509 18 128 1.6 9.7 0.00 0.00 0.00 55 1008.5
20260509172041 18 122 4.8 9.7 0.00 0.00 0.00 55 1008.6
20260509171514 19 209 1.6 8.0 0.00 0.00 0.00 56 1008.5
20260509171042 19 178 3.2 8.0 0.00 0.00 0.00 58 1008.5
20260509170513 19 194 3.2 8.0 0.00 0.00 0.00 55 1008.6
20260509170027 19 152 1.6 9.7 0.00 0.00 0.00 59 1008.7
20260509165558 19 310 3.2 12.9 0.00 0.00 0.00 54 1008.7
20260509165501 19 313 4.8 12.9 0.00 0.00 0.00 54 1008.7
20260509165033 19 306 6.4 12.9 0.00 0.00 0.00 55 1008.7
20260509164505 19 242 8.0 11.3 0.00 0.00 0.00 52 1008.8
20260509164036 19 148 1.6 14.5 0.00 0.00 0.00 60 1008.8
20260509163553 18 208 6.4 14.5 0.00 0.00 0.00 56 1008.7
20260509163024 18 150 4.8 11.3 0.00 0.00 0.00 54 1008.7
20260509162559 18 187 3.2 17.7 0.00 0.00 0.00 60 1008.6
20260509162501 18 322 3.2 17.7 0.00 0.00 0.00 60 1008.6
20260509162039 18 210 9.7 17.7 0.00 0.00 0.00 57 1008.6
20260509161507 18 92 4.8 16.1 0.00 0.00 0.00 58 1008.6
20260509161041 18 152 4.8 12.9 0.00 0.00 0.00 56 1008.5
20260509160552 18 171 4.8 9.7 0.00 0.00 0.00 60 1008.5
20260509160023 18 15 3.2 11.3 0.00 0.00 0.00 56 1008.6
20260509155552 17 181 4.8 11.3 0.00 0.00 0.00 59 1008.6
20260509155020 18 192 3.2 12.9 0.00 0.00 0.00 57 1008.7
20260509154602 17 197 4.8 12.9 0.00 0.00 0.00 55 1008.7
20260509154008 17 188 1.6 9.7 0.00 0.00 0.00 60 1008.7
20260509153540 17 227 4.8 9.7 0.00 0.00 0.00 61 1008.9
20260509153011 17 184 1.6 8.0 0.00 0.00 0.00 60 1009.0
20260509152540 17 207 1.6 8.0 0.00 0.00 0.00 57 1009.0
20260509152011 17 199 3.2 11.3 0.00 0.00 0.00 58 1009.0
20260509151527 17 229 4.8 11.3 0.00 0.00 0.00 59 1009.1
20260509151058 16 321 3.2 8.0 0.00 0.00 0.00 60 1008.9
20260509150536 16 340 0.0 8.0 0.00 0.00 0.00 59 1009.1
20260509150016 16 288 3.2 9.7 0.00 0.00 0.00 58 1009.1
20260509145527 16 267 1.6 6.4 0.00 0.00 0.00 62 1009.1
20260509145101 16 265 1.6 8.0 0.00 0.00 0.00 63 1009.1
20260509145003 16 229 0.0 6.4 0.00 0.00 0.00 63 1009.1
20260509144551 16 348 1.6 6.4 0.00 0.00 0.00 61 1009.1
20260509144008 16 165 0.0 9.7 0.00 0.00 0.00 62 1009.2
20260509143537 15 357 4.8 9.7 0.00 0.00 0.00 64 1009.3
20260509143018 15 360 1.6 9.7 0.00 0.00 0.00 62 1009.4
20260509142546 15 299 1.6 9.7 0.00 0.00 0.00 63 1009.4
20260509142017 15 275 3.2 9.7 0.00 0.00 0.00 63 1009.4
20260509141550 15 38 0.0 8.0 0.00 0.00 0.00 64 1009.5
20260509141028 15 283 3.2 9.7 0.00 0.00 0.00 63 1009.4
20260509140554 15 318 0.0 4.8 0.00 0.00 0.00 63 1009.5
20260509140024 15 271 0.0 9.7 0.00 0.00 0.00 62 1009.4
20260509135554 15 244 3.2 9.7 0.00 0.00 0.00 64 1009.4
20260509135031 15 327 0.0 4.8 0.00 0.00 0.00 67 1009.4
20260509134600 14 246 0.0 8.0 0.00 0.00 0.00 66 1009.3
20260509134502 14 271 0.0 8.0 0.00 0.00 0.00 65 1009.3
20260509134032 14 288 3.2 8.0 0.00 0.00 0.00 65 1009.3
20260509133504 14 269 1.6 6.4 0.00 0.00 0.00 66 1009.3
20260509133037 14 261 0.0 4.8 0.00 0.00 0.00 65 1009.3
20260509132506 14 181 0.0 4.8 0.00 0.00 0.00 66 1009.3
20260509132040 13 196 0.0 8.0 0.00 0.00 0.00 68 1009.3
20260509131527 13 302 3.2 11.3 0.00 0.00 0.00 66 1009.4
20260509131049 13 244 4.8 11.3 0.00 0.00 0.00 65 1009.4
20260509130518 13 259 1.6 6.4 0.00 0.00 0.00 65 1009.4
20260509130101 13 274 1.6 6.4 0.00 0.00 0.00 66 1009.5
20260509125523 13 237 0.0 4.8 0.00 0.00 0.00 69 1009.4
20260509125042 13 291 0.0 4.8 0.00 0.00 0.00 71 1009.5
20260509124520 13 269 0.0 3.2 0.00 0.00 0.00 70 1009.3
20260509124046 13 320 0.0 4.8 0.00 0.00 0.00 68 1009.4
20260509123516 13 321 1.6 3.2 0.00 0.00 0.00 67 1009.5
20260509123050 13 277 0.0 4.8 0.00 0.00 0.00 68 1009.5
20260509122503 13 277 1.6 4.8 0.00 0.00 0.00 68 1009.4
20260509122040 12 277 1.6 4.8 0.00 0.00 0.00 68 1009.3
20260509121514 12 260 0.0 3.2 0.00 0.00 0.00 70 1009.4
20260509121048 12 240 0.0 3.2 0.00 0.00 0.00 71 1009.4
20260509120514 12 217 0.0 1.6 0.00 0.00 0.00 71 1009.3
20260509120048 12 234 0.0 3.2 0.00 0.00 0.00 68 1009.4
20260509115505 12 234 0.0 3.2 0.00 0.00 0.00 70 1009.4
20260509115039 12 234 1.6 3.2 0.00 0.00 0.00 69 1009.4
20260509114510 12 103 0.0 6.4 0.00 0.00 0.00 66 1009.3
20260509114041 12 103 3.2 6.4 0.00 0.00 0.00 67 1009.3
20260509113510 12 328 0.0 6.4 0.00 0.00 0.00 66 1009.3
20260509113050 12 283 1.6 6.4 0.00 0.00 0.00 66 1009.0
20260509112521 12 323 0.0 6.4 0.00 0.00 0.00 66 1008.9
20260509112051 12 306 0.0 6.4 0.00 0.00 0.00 66 1008.9
20260509111519 12 292 1.6 4.8 0.00 0.00 0.00 66 1008.8
20260509111054 12 293 0.0 4.8 0.00 0.00 0.00 66 1008.8
20260509110528 12 315 0.0 4.8 0.00 0.00 0.00 66 1008.8
20260509110059 12 18 0.0 6.4 0.00 0.00 0.00 67 1008.8
20260509105529 12 9 1.6 6.4 0.00 0.00 0.00 65 1008.7
20260509105045 12 38 1.6 6.4 0.00 0.00 0.00 67 1008.8
20260509104517 12 33 1.6 4.8 0.00 0.00 0.00 67 1008.9
20260509104051 12 50 1.6 4.8 0.00 0.00 0.00 67 1008.8
20260509103521 12 48 1.6 6.4 0.00 0.00 0.00 65 1008.8
20260509103053 12 30 1.6 4.8 0.00 0.00 0.00 65 1008.8
20260509102533 12 44 1.6 6.4 0.00 0.00 0.00 67 1008.9
20260509102047 12 73 0.0 6.4 0.00 0.00 0.00 66 1008.9
20260509101524 12 47 1.6 6.4 0.00 0.00 0.00 64 1008.9
20260509101055 12 48 1.6 6.4 0.00 0.00 0.00 64 1008.8
20260509100527 12 11 1.6 4.8 0.00 0.00 0.00 63 1008.7
20260509100057 12 40 1.6 4.8 0.00 0.00 0.00 63 1008.9
20260509095515 13 327 0.0 4.8 0.00 0.00 0.00 61 1008.9
20260509095051 13 48 0.0 4.8 0.00 0.00 0.00 62 1008.9
20260509094520 13 359 0.0 6.4 0.00 0.00 0.00 61 1008.8
20260509094051 13 342 1.6 6.4 0.00 0.00 0.00 60 1008.8
20260509093505 13 304 1.6 8.0 0.00 0.00 0.00 60 1008.8
20260509093022 13 300 1.6 4.8 0.00 0.00 0.00 60 1008.9
20260509092557 13 217 1.6 8.0 0.00 0.00 0.00 60 1008.9
20260509092031 13 321 1.6 9.7 0.00 0.00 0.00 61 1008.9
20260509091505 13 290 4.8 9.7 0.00 0.00 0.00 61 1008.9
20260509091035 13 304 1.6 6.4 0.00 0.00 0.00 61 1008.9
20260509090509 13 321 0.0 8.0 0.00 0.00 0.00 60 1008.8
20260509090053 13 301 1.6 8.0 0.00 0.00 0.00 58 1008.8
20260509085509 13 59 1.6 8.0 0.00 0.00 0.00 59 1008.9
20260509085044 13 317 1.6 11.3 0.00 0.00 0.00 60 1009.0
20260509084515 13 308 1.6 9.7 0.00 0.00 0.00 58 1009.1
20260509084026 13 283 1.6 9.7 0.00 0.00 0.00 58 1009.2
20260509083559 13 246 1.6 6.4 0.00 0.00 0.00 58 1009.1
20260509083503 13 35 1.6 6.4 0.00 0.00 0.00 58 1009.1
20260509083044 13 292 1.6 6.4 0.00 0.00 0.00 57 1009.0
20260509082503 13 298 1.6 14.5 0.00 0.00 0.00 58 1009.1
20260509082033 13 273 3.2 14.5 0.00 0.00 0.00 58 1009.1
20260509081505 13 298 4.8 16.1 0.00 0.00 0.00 57 1009.1
20260509081039 13 300 8.0 19.3 0.00 0.00 0.00 58 1009.0
20260509080510 13 351 4.8 11.3 0.00 0.00 0.00 58 1009.2
20260509080047 13 290 4.8 14.5 0.00 0.00 0.00 58 1009.2
20260509075559 13 272 6.4 14.5 0.00 0.00 0.00 58 1009.2
20260509075501 13 256 6.4 12.9 0.00 0.00 0.00 58 1009.1
20260509075029 13 259 3.2 14.5 0.00 0.00 0.00 60 1009.2
20260509074503 13 269 8.0 14.5 0.00 0.00 0.00 59 1009.1
20260509074035 13 329 6.4 12.9 0.00 0.00 0.00 60 1009.2
20260509073503 13 321 3.2 11.3 0.00 0.00 0.00 62 1009.2
20260509073019 13 278 0.0 9.7 0.00 0.00 0.00 63 1009.2
20260509072555 13 327 0.0 9.7 0.00 0.00 0.00 62 1009.2
20260509072026 12 322 1.6 6.4 0.00 0.00 0.00 62 1009.1
20260509071559 12 288 3.2 6.4 0.00 0.00 0.00 63 1009.3
20260509071500 12 309 1.6 8.0 0.00 0.00 0.00 63 1009.2
20260509071037 12 303 0.0 4.8 0.00 0.00 0.00 64 1009.2
20260509070551 12 350 0.0 3.2 0.00 0.00 0.00 63 1009.3
20260509070025 12 259 0.0 6.4 0.00 0.00 0.00 64 1009.2
20260509065556 12 284 1.6 6.4 0.00 0.00 0.00 64 1009.3
20260509065028 12 312 0.0 6.4 0.00 0.00 0.00 64 1009.3
20260509064503 12 282 1.6 6.4 0.00 0.00 0.00 63 1009.3
20260509064037 12 275 0.0 4.8 0.00 0.00 0.00 64 1009.3
20260509063504 12 291 1.6 8.0 0.00 0.00 0.00 65 1009.5
20260509063034 12 243 0.0 4.8 0.00 0.00 0.00 64 1009.5
20260509062507 12 254 0.0 9.7 0.00 0.00 0.00 65 1009.5
20260509062039 12 333 3.2 9.7 0.00 0.00 0.00 66 1009.6
20260509061519 12 257 1.6 6.4 0.00 0.00 0.00 67 1009.7
20260509061026 12 296 1.6 4.8 0.00 0.00 0.00 69 1009.8
20260509060603 12 67 0.0 4.8 0.00 0.00 0.00 68 1009.7
20260509060503 12 67 0.0 4.8 0.00 0.00 0.00 70 1009.7
20260509060037 12 326 1.6 4.8 0.00 0.00 0.00 67 1009.8
20260509055507 12 259 0.0 4.8 0.00 0.00 0.00 67 1009.8
20260509055035 12 282 0.0 3.2 0.00 0.00 0.00 66 1009.9
20260509054511 12 356 0.0 3.2 0.00 0.00 0.00 66 1009.9
20260509054044 12 352 0.0 4.8 0.00 0.00 0.00 66 1009.9
20260509053516 12 298 0.0 4.8 0.00 0.00 0.00 65 1010.0
20260509053129 12 274 0.0 8.0 0.00 0.00 0.00 65 1009.9
20260509052531 12 322 1.6 8.0 0.00 0.00 0.00 65 1009.9
20260509052101 12 280 0.0 6.4 0.00 0.00 0.00 66 1010.0
20260509052002 11 96 1.6 6.4 0.00 0.00 0.00 66 1009.9
20260509051539 11 285 1.6 8.0 0.00 0.00 0.00 67 1009.9
20260509051009 11 302 3.2 8.0 0.00 0.00 0.00 67 1010.0
20260509050544 11 296 0.0 4.8 0.00 0.00 0.00 68 1010.0
20260509050015 11 277 0.0 4.8 0.00 0.00 0.00 68 1009.9
20260509045528 11 285 0.0 4.8 0.00 0.00 0.00 68 1010.0
20260509045104 11 27 0.0 4.8 0.00 0.00 0.00 70 1010.0
20260509045004 11 27 0.0 4.8 0.00 0.00 0.00 70 1009.9
20260509044536 11 304 0.0 4.8 0.00 0.00 0.00 70 1010.0
20260509044009 11 321 0.0 3.2 0.00 0.00 0.00 75 1009.7
20260509043540 10 321 0.0 3.2 0.00 0.00 0.00 72 1009.9
20260509043011 10 350 0.0 0.0 0.00 0.00 0.00 74 1009.8
20260509042526 10 350 0.0 0.0 0.00 0.00 0.00 75 1010.0
20260509042100 10 350 0.0 0.0 0.00 0.00 0.00 74 1009.8
20260509042002 10 350 0.0 0.0 0.00 0.00 0.00 74 1009.8
20260509041550 10 350 0.0 0.0 0.00 0.00 0.00 74 1009.9
20260509041011 10 350 0.0 0.0 0.00 0.00 0.00 73 1009.9
20260509040546 10 350 0.0 1.6 0.00 0.00 0.00 70 1009.9
20260509040118 11 350 0.0 3.2 0.00 0.00 0.00 72 1009.9
20260509035526 11 350 0.0 3.2 0.00 0.00 0.00 71 1010.0
20260509035100 11 305 0.0 3.2 0.00 0.00 0.00 70 1009.9
20260509035005 11 310 0.0 3.2 0.00 0.00 0.00 70 1009.9
20260509034550 11 310 0.0 3.2 0.00 0.00 0.00 68 1009.9
20260509034008 11 310 0.0 1.6 0.00 0.00 0.00 67 1009.9
20260509033524 11 290 0.0 1.6 0.00 0.00 0.00 66 1009.9
20260509033057 12 280 0.0 0.0 0.00 0.00 0.00 65 1009.9
20260509032526 12 280 0.0 0.0 0.00 0.00 0.00 62 1010.0
20260509032101 12 280 0.0 0.0 0.00 0.00 0.00 62 1010.0
20260509032003 12 280 0.0 0.0 0.00 0.00 0.00 61 1010.0
20260509031536 12 280 0.0 0.0 0.00 0.00 0.00 61 1010.0
20260509031006 12 280 0.0 0.0 0.00 0.00 0.00 60 1010.0
20260509030545 13 280 0.0 0.0 0.00 0.00 0.00 60 1010.0
20260509030012 13 280 0.0 0.0 0.00 0.00 0.00 59 1010.0
20260509025546 13 280 0.0 0.0 0.00 0.00 0.00 59 1010.1
20260509025016 13 280 0.0 0.0 0.00 0.00 0.00 59 1010.1
20260509024548 13 280 0.0 0.0 0.00 0.00 0.00 59 1010.2
20260509024024 13 280 0.0 0.0 0.00 0.00 0.00 59 1010.2
20260509023554 14 280 0.0 3.2 0.00 0.00 0.00 57 1010.2
20260509023023 14 280 0.0 3.2 0.00 0.00 0.00 56 1010.3
20260509022602 14 280 0.0 3.2 0.00 0.00 0.00 56 1010.3
20260509022032 14 284 0.0 4.8 0.00 0.00 0.00 56 1010.2
20260509021558 14 279 0.0 4.8 0.00 0.00 0.00 55 1010.2
20260509021502 14 279 0.0 4.8 0.00 0.00 0.00 55 1010.2
20260509021033 14 286 0.0 4.8 0.00 0.00 0.00 55 1010.1
20260509020509 14 294 0.0 3.2 0.00 0.00 0.00 55 1010.2
20260509020052 14 300 0.0 0.0 0.00 0.00 0.00 54 1010.2
20260509015517 15 296 0.0 0.0 0.00 0.00 0.00 54 1010.2
20260509015050 15 301 0.0 0.0 0.00 0.00 0.00 54 1010.2
20260509014509 15 267 0.0 0.0 0.00 0.00 0.00 53 1010.2
20260509014041 15 267 0.0 0.0 0.00 0.00 0.00 52 1010.1
20260509013508 15 261 0.0 0.0 0.00 0.00 0.00 51 1010.0
20260509013049 16 262 0.0 0.0 0.00 0.00 0.00 50 1010.0
20260509012514 16 261 0.0 0.0 0.00 0.00 0.00 50 1010.0
20260509012046 16 261 0.0 0.0 0.00 0.00 0.00 49 1010.1
20260509011526 16 261 0.0 0.0 0.00 0.00 0.00 49 1010.1
20260509011057 16 261 0.0 0.0 0.00 0.00 0.00 48 1010.1
20260509010533 16 261 0.0 0.0 0.00 0.00 0.00 48 1010.0
20260509010100 16 261 0.0 3.2 0.00 0.00 0.00 47 1009.9
20260509010008 16 261 0.0 3.2 0.00 0.00 0.00 47 1010.0
20260509005545 17 256 0.0 3.2 0.00 0.00 0.00 47 1009.9
20260509005018 17 256 0.0 4.8 0.00 0.00 0.00 46 1009.9
20260509004546 17 261 1.6 4.8 0.00 0.00 0.00 46 1009.8
20260509004017 17 246 0.0 4.8 0.00 0.00 0.00 45 1009.8
20260509003548 17 226 0.0 4.8 0.00 0.00 0.00 45 1009.8
20260509003006 18 231 1.6 4.8 0.00 0.00 0.00 45 1009.7
20260509002537 18 275 0.0 6.4 0.00 0.00 0.00 43 1009.7
20260509002006 18 252 1.6 8.0 0.00 0.00 0.00 43 1009.7
20260509001538 18 257 1.6 8.0 0.00 0.00 0.00 41 1009.8
20260509001013 18 269 1.6 9.7 0.00 0.00 0.00 40 1009.7
20260509000546 18 292 4.8 9.7 0.00 0.00 0.00 39 1009.6
20260509000100 18 298 0.0 6.4 0.00 0.00 0.00 40 1009.6
20260509000005 18 298 1.6 6.4 0.00 0.00 0.00 40 1009.6
20260508235527 19 263 1.6 6.4 0.00 0.00 0.00 41 1009.6
20260508235057 19 222 0.0 3.2 0.00 0.00 0.00 40 1009.5
20260508234535 19 279 0.0 0.0 0.00 0.00 0.00 38 1009.4
20260508234100 20 279 0.0 3.2 0.00 0.00 0.00 38 1009.3
20260508234001 20 279 0.0 3.2 0.00 0.00 0.00 37 1009.4
20260508233532 20 296 0.0 4.8 0.00 0.00 0.00 38 1009.3
20260508233113 20 268 0.0 4.8 0.00 0.00 0.00 38 1009.2
20260508233002 20 268 0.0 3.2 0.00 0.00 0.00 37 1009.3
20260508232539 20 289 0.0 4.8 0.00 0.00 0.00 37 1009.4
20260508232007 20 291 1.6 4.8 0.00 0.00 0.00 35 1009.2
20260508231539 20 279 1.6 3.2 0.00 0.00 0.00 36 1009.3
20260508231009 20 355 0.0 1.6 0.00 0.00 0.00 36 1009.2
20260508230527 20 357 0.0 3.2 0.00 0.00 0.00 35 1009.2
20260508230107 21 358 0.0 6.4 0.00 0.00 0.00 34 1009.3
20260508230003 21 291 0.0 6.4 0.00 0.00 0.00 34 1009.3
20260508225536 21 302 1.6 8.0 0.00 0.00 0.00 34 1009.2
20260508225052 21 323 0.0 9.7 0.00 0.00 0.00 33 1009.2
20260508224509 21 357 0.0 9.7 0.00 0.00 0.00 33 1009.2
20260508224043 21 325 1.6 9.7 0.00 0.00 0.00 32 1009.1
20260508223513 22 302 3.2 9.7 0.00 0.00 0.00 31 1009.1
20260508223048 22 341 1.6 6.4 0.00 0.00 0.00 32 1009.1
20260508222521 22 324 1.6 9.7 0.00 0.00 0.00 36 1009.0
20260508222034 22 340 3.2 9.7 0.00 0.00 0.00 34 1008.9
20260508221518 21 260 3.2 11.3 0.00 0.00 0.00 33 1009.0
20260508221042 21 276 3.2 11.3 0.00 0.00 0.00 35 1009.0
20260508220514 21 265 0.0 3.2 0.00 0.00 0.00 40 1009.1
20260508220030 21 190 0.0 3.2 0.00 0.00 0.00 37 1009.1
20260508215559 20 217 1.6 4.8 0.00 0.00 0.00 36 1009.1
20260508215502 20 271 0.0 6.4 0.00 0.00 0.00 36 1009.2
20260508215027 20 303 3.2 11.3 0.00 0.00 0.00 34 1009.3
20260508214606 21 309 4.8 12.9 0.00 0.00 0.00 35 1009.3
20260508214501 21 304 3.2 8.0 0.00 0.00 0.00 34 1009.3
20260508214032 21 290 3.2 14.5 0.00 0.00 0.00 35 1009.2
20260508213503 21 38 3.2 14.5 0.00 0.00 0.00 33 1009.2